El Paso, TX

11:58 PM MST on November 19, 2017 (GMT -0700)
El Paso International

Weather History for KELP - January, 2013

Change the Weather History Date:

Tuesday, January 15, 2013

  Actual Average Record
Temperature  
Mean Temperature 32 °F 45 °F  
Max Temperature 39 °F 57 °F 71 °F (2003)
Min Temperature 24 °F 32 °F 13 °F (1963)
Degree Days  
Heating Degree Days 33 20  
Month to date heating degree days 412 312  
Since 1 July heating degree days 1212 1380  
Cooling Degree Days 0 0  
Month to date cooling degree days 0 0  
Year to date cooling degree days 0 0  
Moisture  
Dew Point 2 °F    
Average Humidity 37    
Maximum Humidity 60    
Minimum Humidity 13    
Precipitation  
Precipitation 0.00 in 0.01 in 0.51 in (2017)
Month to date precipitation 0.30 0.19  
Year to date precipitation 0.30 0.19  
Snow  
Snow 0.00 in - - ()
Month to date snowfall 3.1  
Since 1 July snowfall 3.1  
Snow Depth -    
Sea Level Pressure  
Sea Level Pressure 30.20 in    
Wind  
Wind Speed 8 mph (NNW)    
Max Wind Speed 21 mph    
Max Gust Speed 25 mph    
Visibility 10 miles    
Events      
T = Trace of Precipitation, MM = Missing Value Source: NWS Daily Summary

Daily Weather History Graph

Daily Weather History Graph

Search for Another Location

Airport or City:

Trip Planner

Search our weather history database for the weather conditions in past years. The results will help you decide how hot, cold, wet, or windy it might be!

Date:

Astronomy

Jan. 15, 2013 Rise Set
Actual Time 7:05 AM MST 5:24 PM MST
Civil Twilight 6:39 AM MST 5:50 PM MST
Nautical Twilight 6:09 AM MST 6:20 PM MST
Astronomical Twilight 5:40 AM MST 6:50 PM MST
Moon 9:31 AM MST (1/15) 9:56 PM MST (1/15)
Length of Visible Light 11h 11m
Length of Day
10h 18m
Waxing Crescent, 20% of the Moon is Illuminated
Jan 15
Waxing Crescent
Jan 18
First Quarter
Jan 26
Full
Feb 3
Last Quarter
Feb 10
New

Hourly Weather History & Observations

Time (MST) Temp. Windchill Dew Point Humidity Pressure Visibility Wind Dir Wind Speed Gust Speed Precip Events Conditions
12:51 AM 27.0 °F 23.0 °F 5.0 °F 39% 30.04 in 10.0 mi ESE 3.5 mph - N/A   Scattered Clouds
1:51 AM 26.6 °F - 10.4 °F 51% 30.07 in 10.0 mi Calm Calm - N/A   Mostly Cloudy
2:51 AM 26.1 °F 21.9 °F 10.9 °F 53% 30.07 in 10.0 mi West 3.5 mph - N/A   Mostly Cloudy
3:51 AM 28.0 °F 17.5 °F 10.0 °F 47% 30.06 in 10.0 mi NNW 12.7 mph - N/A   Mostly Cloudy
5:51 AM 25.0 °F 16.3 °F 12.0 °F 58% 30.12 in 10.0 mi NNE 8.1 mph - N/A   Mostly Cloudy
6:51 AM 24.1 °F 17.0 °F 12.0 °F 60% 30.16 in 10.0 mi NNE 5.8 mph - N/A   Scattered Clouds
7:51 AM 25.0 °F 16.3 °F 12.9 °F 60% 30.19 in 10.0 mi NNE 8.1 mph - N/A   Scattered Clouds
8:51 AM 28.0 °F 19.3 °F 10.9 °F 49% 30.21 in 10.0 mi NNE 9.2 mph - N/A   Partly Cloudy
9:51 AM 30.0 °F 20.5 °F 9.0 °F 41% 30.21 in 10.0 mi North 11.5 mph - N/A   Partly Cloudy
10:51 AM 32.0 °F 22.5 °F 6.1 °F 34% 30.20 in 10.0 mi North 12.7 mph - N/A   Partly Cloudy
11:51 AM 33.1 °F 28.7 °F 6.1 °F 32% 30.19 in 10.0 mi NW 4.6 mph - N/A   Partly Cloudy
12:51 PM 36.0 °F - 6.1 °F 29% 30.16 in 10.0 mi Calm Calm - N/A   Partly Cloudy
1:51 PM 37.4 °F 30.3 °F -0.4 °F 20% 30.14 in 10.0 mi NNW 10.4 mph 24.2 mph N/A   Partly Cloudy
2:51 PM 37.9 °F 28.2 °F -5.1 °F 16% 30.16 in 10.0 mi NW 18.4 mph 25.3 mph N/A   Partly Cloudy
3:51 PM 37.9 °F 28.2 °F -7.1 °F 15% 30.18 in 10.0 mi NW 18.4 mph 21.9 mph N/A   Clear
4:51 PM 37.0 °F 27.7 °F -9.9 °F 13% 30.21 in 10.0 mi NNW 16.1 mph - N/A   Clear
5:51 PM 34.0 °F 25.0 °F -7.1 °F 17% 30.24 in 10.0 mi North 12.7 mph - N/A   Clear
6:51 PM 32.0 °F 23.6 °F -4.0 °F 21% 30.29 in 10.0 mi NNW 10.4 mph - N/A   Clear
7:51 PM 30.0 °F 22.4 °F -4.0 °F 23% 30.31 in 10.0 mi NW 8.1 mph - N/A   Clear
8:51 PM 28.9 °F 21.9 °F -6.0 °F 22% 30.32 in 10.0 mi NNW 6.9 mph - N/A   Clear
9:51 PM 28.9 °F 23.9 °F -7.1 °F 21% 30.31 in 10.0 mi North 4.6 mph - N/A   Clear
10:51 PM 27.0 °F - -6.0 °F 24% 30.33 in 10.0 mi Calm Calm - N/A   Clear
11:51 PM 26.6 °F 22.6 °F -4.0 °F 26% 30.32 in 10.0 mi SSW 3.5 mph - N/A   Clear